Flag for Argentina Weather past 2 weeks in Salta, Salta, Argentina

Now
72 °F

Passing clouds.


Feels Like: 71 °F
Forecast: 64 / 82 °F
Wind: 3 mph from North

Location: Salta Aerodrome

Current Time: Mar 6, 2015 at 10:53:23 PM

Latest Report: Mar 6, 2015 at 10:00 PM


Visibility: N/A

Pressure: 30.04 "Hg

Humidity: 83%

Dew point: 66 °F

Location of SaltaLocation

Historic Weather in Salta — Graph

°F

Salta temperature yesterday

Maximum temperature yesterday: 84 °F (at 6:00 PM)
Minimum temperature yesterday: 66 °F (at 6:00 AM)
Average temperature yesterday: 70 °F

Past Weeks' High & Low Weather Summary

 TemperatureHumidityPressure
High122 °F (Feb 21, 5:00 PM)100% (Feb 20, 6:00 AM)30.21 "Hg (Feb 20, 6:00 AM)
Low57 °F (Feb 20, 6:00 AM)5% (Feb 21, 10:00 PM)29.86 "Hg (Mar 3, 4:00 PM)
Average69 °F85%30.04 "Hg
* Reported Feb 19 9:00 PM — Mar 6 9:00 PM, Salta, Weather by CustomWeather, © 2015

Note: Actual official high and low records may vary slightly from our data, if they occured in-between our weather recording intervals... More about our weather records

Advertising

Salta weather history for previous 24 hours

 ConditionsComfort  
Time TempWeatherWind HumidityBarometerVisibility
9:00 PM
Fri, Mar 6
72 °FPassing clouds.2 mph83%30.01 "HgN/A
8:00 PM75 °FPassing clouds.5 mph78%29.98 "HgN/A
7:00 PM77 °FPassing clouds.5 mph74%29.95 "HgN/A
6:00 PM77 °FScattered clouds.7 mph69%29.95 "HgN/A
5:00 PM79 °FScattered clouds.8 mph65%29.95 "HgN/A
4:00 PM79 °FScattered clouds.7 mph65%29.98 "HgN/A
3:00 PM79 °FSmoke.2 mph65%30.01 "HgN/A
2:00 PM79 °FScattered clouds.9 mph70%30.04 "HgN/A
1:00 PM79 °FScattered clouds.3 mph37%30.07 "HgN/A
12:00 PM75 °FScattered clouds.2 mph74%30.07 "HgN/A
11:00 AM72 °FBroken clouds.3 mph88%30.09 "HgN/A
10:00 AM70 °FMild.2 mph88%30.09 "HgN/A
9:00 AM68 °FPartly sunny.No wind94%30.09 "Hg5 mi
8:00 AM68 °FScattered clouds.No wind94%30.09 "Hg5 mi
7:00 AM66 °FScattered clouds.No wind100%30.07 "HgN/A
6:00 AM68 °FPassing clouds.No wind94%30.04 "Hg5 mi
12:00 AM68 °FOvercast.2 mph94%30.09 "Hg6 mi
Weather by CustomWeather, © 2015

See weather overviewHow to use our weather pages